Notices

What's New in latest Release from April 7th, 2021:

- Updated Glossary, including Speed of Maximum Gust, and Total Hourly Precipitation

- Updated national and regional climate services offices contacts and prices information

- Addition of station inventory lists for 1981-2010, 1971-2000, and 1961-1990 Normals.

If you haven't already, please take our survey and provide feedback about our website: https://eccc.sondage-survey.ca/f/LanguageSelection.aspx?s=442ca660-fcf1-47c0-95a9-59707d6fd709

Hourly Data Report for March 15, 2018

MIRAMICHI RCS
NEW BRUNSWICK

47°00'34.000" N
65°27'54.000" W
33.00 m
8100989
71744
ACQ

Download Data

Hourly Data (March 2018)
Hourly Data Report for March 15, 2018
TIME
LST
Temp Definition
°C
Dew Point Definition
°C
Rel Hum Definition
%
Precip. Amount Definition
mm

Wind Dir Definition
10's deg

Wind Spd Definition
km/h
Visibility Definition
km
Stn Press Definition
kPa
Hmdx Definition


Wind Chill Definition


Weather Definition


00:00 -0.5 -1.6 93 0.0 21 25   98.34   -7 LegendNANA
01:00 -1.2 -2.4 92 0.0 19 20   98.39   -7 LegendNANA
02:00 -1.0 -2.2 91 0.0 19 19   98.36   -6 LegendNANA
03:00 -1.3 -2.6 91 0.0 21 20   98.32   -7 LegendNANA
04:00 -2.1 -3.4 91 0.0 18 14   98.24   -7 LegendNANA
05:00 -3.1 -4.1 93 0.0 18 11   98.20   -7 LegendNANA
06:00 -2.4 -3.0 96 0.0 14 10   98.15   -6 LegendNANA
07:00 -1.7 -2.3 96 0.0 13 7   98.06   -4 LegendNANA
08:00 -1.0 -1.5 97 2.7 11 4   97.99   -2 LegendNANA
09:00 -0.4 -1.1 95 0.5 15 3   97.93   -1 LegendNANA
10:00 0.4 -0.6 93 2.5 20 8   97.86     LegendNANA
11:00 0.6 -0.7 91 0.4 23 7   97.81     LegendNANA
12:00 1.1 -1.2 85 0.0 25 9   97.75     LegendNANA
13:00 1.5 -1.2 82 0.0 23 11   97.69     LegendNANA
14:00 1.9 -2.1 75 0.0 24 17   97.62     LegendNANA
15:00 1.8 -1.3 80 0.3 24 10   97.61     LegendNANA
16:00 1.1 -1.8 81 0.6 31 8   97.62     LegendNANA
17:00 2.0 -0.8 81 0.0 25 11   97.67     LegendNANA
18:00 0.6 -1.6 85 0.0 29 11   97.76     LegendNANA
19:00 0.5 -1.9 84 0.0 27 18   97.83     LegendNANA
20:00 -0.1 -2.2 86 0.0 24 14   97.89   -4 LegendNANA
21:00 -0.2 -2.1 87 0.0 24 16   97.92   -5 LegendNANA
22:00 -1.0 -2.8 88 0.0 24 16   97.94   -6 LegendNANA
23:00 -1.2 -3.3 86 0.0 24 16   97.96   -6 LegendNANA

Notes on Data Quality.

Legend

  • E = Estimated
  • M = Missing
  • NA = Not Available*
  • [empty] = Indicates an unobserved value
Date modified: